Tracking 18980 objects as of 23-Feb-2018
HD Live streaming from Space Station
objects crossing your sky now

FENGYUN 1C DEB

Track FENGYUN 1C DEB now!
10-day predictions


NORAD ID: 36188
Int'l Code: 1999-025DTM
Perigee: 746.0 km
Apogee: 861.7 km
Inclination: 98.8 °
Period: 100.8 minutes
Semi major axis: 7174 km
RCS: 0.0031 m2 (small)
Launch date: May 10, 1999
Source: People's Republic of China (PRC)
Launch site: Taiyaun Space Center, China (TSC)

Note: This is SATELLITE DEBRIS
aabbcc
Your satellite tracking list
Your tracking list is empty




NASA's NSSDC Master Catalog

Two Line Element Set (TLE):
1 36188U 99025DTM 18048.35970497  .00000818  00000-0  33243-3 0  9991
2 36188  98.7649 100.2688 0080657 117.8866 243.0513 14.28503376475428
Source of the keplerian elements: AFSPC